sat.trackr.live / text

‹ back to catalog

ONEWEB-0167

NORAD 48064 · 2021-025Y

PAYLOAD ACTIVE UNKNOWN

§ Identity

Operator
Country
UK
Launch date
2021-03-25
Launch site
VOSTO
Launch vehicle
Mass (kg)
RCS (m²)

Purposes: comms

External: N2YO · Heavens-Above · Gunter

§ Orbital elements

Epoch: 2026-09-19T21:20:10.432896Z

Period
109.63 min
Inclination
87.8918°
Eccentricity
0.0001436
Mean motion
13.13469651 rev/d
Perigee alt
1,208.7 km
Apogee alt
1,210.9 km
Semi-major
7,587.9 km
B*
-3.1225e-4
RAAN
301.3861°
Arg perigee
79.6853°
Mean anomaly
280.4438°
Rev number
26,600

§ Raw data

ONEWEB-01671 48064U 21025Y   26262.88900964 -.00000101  00000+0 -31225-3 0  99932 48064  87.8918 301.3861 0001436  79.6853 280.4438 13.13469651266001

JSON: /api/v1/satellites/48064 · /tle

For live sub-satellite position, see the globe view (requires WebGL).

§ Visibility from observer

Set your observer location to see the next 7 days of passes ≥ 10°. The values pass through the URL so the page stays shareable.

No JS? Fill the form by hand. The geolocation button needs JavaScript.